Regional Weather Roundup
Issued by NWS Cleveland, OH

Home | Current Version | Previous Version | Text Only | Print | Product List | Glossary On
Versions: 1 2 3 4 5 6 7 8 9 10 11 12 13 14 15 16 17 18 19 20 21 22 23 24 25 26 27 28 29 30 31 32 33 34 35 36 37 38 39 40 41 42 43 44 45 46 47 48 49 50
000
ASUS41 KCLE 280410
RWRCLE
OHIO REGIONAL WEATHER ROUNDUP
NATIONAL WEATHER SERVICE WILMINGTON, OH
1200 AM EDT MON JUL 28 2014

NOTE: "FAIR" INDICATES FEW OR NO CLOUDS BELOW 12,000 FEET WITH NO
SIGNIFICANT WEATHER AND/OR OBSTRUCTIONS TO VISIBILITY.

OHZ001>008-015>018-024>027-034-035-043-044-280500-
   NORTHWEST OHIO

CITY           SKY/WX    TMP DP  RH WIND       PRES   REMARKS
DEFIANCE       CLEAR     63  59  87 CALM      29.75S
FINDLAY        CLOUDY    64  61  90 MISG      29.73S
TOLEDO EXPRESS CLOUDY    62  57  83 W6        29.72S
TOLEDO METCALF MOCLDY    64  57  78 W8        29.72S
LIMA           PTCLDY    66  63  90 W8        29.76S
$$

OHZ009>014-019>023-028>033-038-089-280500-
   NORTHEAST OHIO

CITY           SKY/WX    TMP DP  RH WIND       PRES   REMARKS
CLE-HOPKINS    MOCLDY    65  63  93 S7        29.68F
CLE-LAKEFRONT  PTCLDY    66  62  87 S6        29.64F
CUY CO. ARPT   NOT AVBL
LORAIN-ELYRIA  CLOUDY    67  63  87 SW7       29.68S
ASHTABULA      MOCLDY    62  59  90 E6        29.65F
AKRON-CANTON   PTCLDY    63  60  90 W6        29.68S
WOOSTER        MOCLDY    64  61  90 W8        29.70S
MANSFIELD      CLOUDY    64  62  93 NW5       29.71F
YOUNGSTOWN     PTCLDY    61  60  97 CALM      29.65F
$$

OHZ042-051>053-060>062-070>072-077>081-280500-
  SOUTHWEST OHIO

CITY           SKY/WX    TMP DP  RH WIND       PRES   REMARKS
CINC-COVINGTON PTCLDY    68  64  87 W8        29.82R
CINC-LUNKEN    CLOUDY    74  62  66 NW6       29.80R
HAMILTON       MOCLDY    73  58  59 W9G22     29.80S
DAYTON         PTCLDY    70  58  65 NW12      29.79S
WRIGHT-PAT AFB PTCLDY    71  60  69 W12       29.77S
DAYTON GENERAL PTCLDY    70  59  68 W7        29.78S
WILMINGTON     PTCLDY    70  61  73 W8        29.78R
$$

OHZ036-037-039>041-045>050-054>059-063>069-073>076-082>088-280500-
  CENTRAL AND SOUTHEAST OHIO

CITY           SKY/WX    TMP DP  RH WIND       PRES   REMARKS
COLUMBUS       PTCLDY    68  63  84 NW9       29.73R
OSU AIRPORT    PTCLDY    67  63  87 NW8       29.74R
BOLTON FIELD   MOCLDY    67  64  91 W5        29.75R
RICKENBACK AFB CLEAR     69  62  78 W9        29.73S
NEWARK         CLEAR     67  62  84 W6        29.72R
MARION         MOCLDY    64  60  87 NW6       29.74R
LANCASTER      MOCLDY    68  63  84 W8        29.73R
ZANESVILLE     MOCLDY    68  62  81 W9        29.70R
NEW PHILLY     CLEAR     65  62  90 W3        29.68S
$$


USA.gov is the U.S. government's official web portal to all federal, state and local government web resources and services.